Year,Month,Day,Hour,Minute,Value (Times are PST for temperature in C)
2009,09,25,00,00,8.00
2009,09,25,00,01,8.00
2009,09,25,00,02,8.00
2009,09,25,00,03,8.00
2009,09,25,00,04,8.00
2009,09,25,00,05,8.00
2009,09,25,00,06,8.00
2009,09,25,00,07,8.00
2009,09,25,00,08,8.00
2009,09,25,00,09,8.00
2009,09,25,00,10,7.90
2009,09,25,00,11,7.90
2009,09,25,00,12,7.90
2009,09,25,00,13,7.90
2009,09,25,00,14,7.90
2009,09,25,00,15,7.80
2009,09,25,00,16,7.80
2009,09,25,00,17,7.80
2009,09,25,00,18,7.80
2009,09,25,00,19,7.80
2009,09,25,00,20,7.80
2009,09,25,00,21,7.80
2009,09,25,00,22,7.80
2009,09,25,00,23,7.80
2009,09,25,00,24,7.80
2009,09,25,00,25,7.80
2009,09,25,00,26,7.80
2009,09,25,00,27,7.80
2009,09,25,00,28,7.80
2009,09,25,00,29,7.80
2009,09,25,00,30,7.80
2009,09,25,00,31,7.80
2009,09,25,00,32,7.80
2009,09,25,00,33,7.70
2009,09,25,00,34,7.70
2009,09,25,00,35,7.70
2009,09,25,00,36,7.70
2009,09,25,00,37,7.70
2009,09,25,00,38,7.70
2009,09,25,00,39,7.70
2009,09,25,00,40,7.60
2009,09,25,00,41,7.60
2009,09,25,00,42,7.60
2009,09,25,00,43,7.60
2009,09,25,00,44,7.70
2009,09,25,00,45,7.70
2009,09,25,00,46,7.70
2009,09,25,00,47,7.70
2009,09,25,00,48,7.70
2009,09,25,00,49,7.70
2009,09,25,00,50,7.70
2009,09,25,00,51,7.60
2009,09,25,00,52,7.60
2009,09,25,00,53,7.60
2009,09,25,00,54,7.60
2009,09,25,00,55,7.60
2009,09,25,00,56,7.60
2009,09,25,00,57,7.60
2009,09,25,00,58,7.60
2009,09,25,00,59,7.60
2009,09,25,01,00,7.60
2009,09,25,01,01,7.50
2009,09,25,01,02,7.60
2009,09,25,01,03,7.60
2009,09,25,01,04,7.60
2009,09,25,01,05,7.60
2009,09,25,01,06,7.70
2009,09,25,01,07,7.70
2009,09,25,01,08,7.70
2009,09,25,01,09,7.70
2009,09,25,01,10,7.70
2009,09,25,01,11,7.70
2009,09,25,01,12,7.70
2009,09,25,01,13,7.70
2009,09,25,01,14,7.70
2009,09,25,01,15,7.70
2009,09,25,01,16,7.70
2009,09,25,01,17,7.70
2009,09,25,01,18,7.70
2009,09,25,01,19,7.60
2009,09,25,01,20,7.60
2009,09,25,01,21,7.60
2009,09,25,01,22,7.60
2009,09,25,01,23,7.60
2009,09,25,01,24,7.60
2009,09,25,01,25,7.50
2009,09,25,01,26,7.50
2009,09,25,01,27,7.50
2009,09,25,01,28,7.40
2009,09,25,01,29,7.40
2009,09,25,01,30,7.40
2009,09,25,01,31,7.40
2009,09,25,01,32,7.30
2009,09,25,01,33,7.30
2009,09,25,01,34,7.30
2009,09,25,01,35,7.30
2009,09,25,01,36,7.30
2009,09,25,01,37,7.30
2009,09,25,01,38,7.30
2009,09,25,01,39,7.30
2009,09,25,01,40,7.30
2009,09,25,01,41,7.30
2009,09,25,01,42,7.30
2009,09,25,01,43,7.30
2009,09,25,01,44,7.30
2009,09,25,01,45,7.30
2009,09,25,01,46,7.30
2009,09,25,01,47,7.30
2009,09,25,01,48,7.30
2009,09,25,01,49,7.30
2009,09,25,01,50,7.30
2009,09,25,01,51,7.30
2009,09,25,01,52,7.30
2009,09,25,01,53,7.30
2009,09,25,01,54,7.30
2009,09,25,01,55,7.30
2009,09,25,01,56,7.30
2009,09,25,01,57,7.30
2009,09,25,01,58,7.30
2009,09,25,01,59,7.30
2009,09,25,02,00,7.30
2009,09,25,02,01,7.30
2009,09,25,02,02,7.30
2009,09,25,02,03,7.30
2009,09,25,02,04,7.30
2009,09,25,02,05,7.30
2009,09,25,02,06,7.30
2009,09,25,02,07,7.30
2009,09,25,02,08,7.30
2009,09,25,02,09,7.30
2009,09,25,02,10,7.30
2009,09,25,02,11,7.30
2009,09,25,02,12,7.40
2009,09,25,02,13,7.40
2009,09,25,02,14,7.40
2009,09,25,02,15,7.40
2009,09,25,02,16,7.40
2009,09,25,02,17,7.40
2009,09,25,02,18,7.30
2009,09,25,02,19,7.30
2009,09,25,02,20,7.30
2009,09,25,02,21,7.30
2009,09,25,02,22,7.30
2009,09,25,02,23,7.30
2009,09,25,02,24,7.30
2009,09,25,02,25,7.30
2009,09,25,02,26,7.30
2009,09,25,02,27,7.20
2009,09,25,02,28,7.20
2009,09,25,02,29,7.20
2009,09,25,02,30,7.20
2009,09,25,02,31,7.20
2009,09,25,02,32,7.20
2009,09,25,02,33,7.10
2009,09,25,02,34,7.10
2009,09,25,02,35,7.10
2009,09,25,02,36,7.10
2009,09,25,02,37,7.10
2009,09,25,02,38,7.00
2009,09,25,02,39,7.00
2009,09,25,02,40,7.00
2009,09,25,02,41,7.00
2009,09,25,02,42,7.00
2009,09,25,02,43,7.00
2009,09,25,02,44,6.90
2009,09,25,02,45,6.90
2009,09,25,02,46,6.90
2009,09,25,02,47,6.90
2009,09,25,02,48,6.80
2009,09,25,02,49,6.80
2009,09,25,02,50,6.80
2009,09,25,02,51,6.80
2009,09,25,02,52,6.80
2009,09,25,02,53,6.80
2009,09,25,02,54,6.80
2009,09,25,02,55,6.80
2009,09,25,02,56,6.80
2009,09,25,02,57,6.80
2009,09,25,02,58,6.80
2009,09,25,02,59,6.80
2009,09,25,03,00,6.80
2009,09,25,03,01,6.80
2009,09,25,03,02,6.80
2009,09,25,03,03,6.70
2009,09,25,03,04,6.70
2009,09,25,03,05,6.70
2009,09,25,03,06,6.70
2009,09,25,03,07,6.70
2009,09,25,03,08,6.70
2009,09,25,03,09,6.70
2009,09,25,03,10,6.70
2009,09,25,03,11,6.70
2009,09,25,03,12,6.70
2009,09,25,03,13,6.70
2009,09,25,03,14,6.70
2009,09,25,03,15,6.70
2009,09,25,03,16,6.70
2009,09,25,03,17,6.80
2009,09,25,03,18,6.80
2009,09,25,03,19,6.80
2009,09,25,03,20,6.90
2009,09,25,03,21,6.90
2009,09,25,03,22,6.90
2009,09,25,03,23,6.90
2009,09,25,03,24,7.00
2009,09,25,03,25,7.00
2009,09,25,03,26,7.00
2009,09,25,03,27,7.00
2009,09,25,03,28,7.00
2009,09,25,03,29,7.00
2009,09,25,03,30,7.00
2009,09,25,03,31,7.00
2009,09,25,03,32,7.00
2009,09,25,03,33,7.00
2009,09,25,03,34,7.00
2009,09,25,03,35,7.00
2009,09,25,03,36,7.00
2009,09,25,03,37,6.90
2009,09,25,03,38,6.90
2009,09,25,03,39,6.90
2009,09,25,03,40,6.90
2009,09,25,03,41,6.90
2009,09,25,03,42,6.90
2009,09,25,03,43,6.90
2009,09,25,03,44,6.90
2009,09,25,03,45,6.90
2009,09,25,03,46,6.80
2009,09,25,03,47,6.80
2009,09,25,03,48,6.80
2009,09,25,03,49,6.80
2009,09,25,03,50,6.80
2009,09,25,03,51,6.80
2009,09,25,03,52,6.80
2009,09,25,03,53,6.80
2009,09,25,03,54,6.80
2009,09,25,03,55,6.80
2009,09,25,03,56,6.80
2009,09,25,03,57,6.80
2009,09,25,03,58,6.80
2009,09,25,03,59,6.80
2009,09,25,04,00,6.80
2009,09,25,04,01,6.80
2009,09,25,04,02,6.80
2009,09,25,04,03,6.80
2009,09,25,04,04,6.80
2009,09,25,04,05,6.80
2009,09,25,04,06,6.80
2009,09,25,04,07,6.80
2009,09,25,04,08,6.80
2009,09,25,04,09,6.70
2009,09,25,04,10,6.70
2009,09,25,04,11,6.70
2009,09,25,04,12,6.70
2009,09,25,04,13,6.70
2009,09,25,04,14,6.70
2009,09,25,04,15,6.70
2009,09,25,04,16,6.60
2009,09,25,04,17,6.60
2009,09,25,04,18,6.60
2009,09,25,04,19,6.60
2009,09,25,04,20,6.60
2009,09,25,04,21,6.60
2009,09,25,04,22,6.60
2009,09,25,04,23,6.60
2009,09,25,04,24,6.60
2009,09,25,04,25,6.60
2009,09,25,04,26,6.50
2009,09,25,04,27,6.40
2009,09,25,04,28,6.40
2009,09,25,04,29,6.40
2009,09,25,04,30,6.40
2009,09,25,04,31,6.40
2009,09,25,04,32,6.40
2009,09,25,04,33,6.40
2009,09,25,04,34,6.40
2009,09,25,04,35,6.40
2009,09,25,04,36,6.50
2009,09,25,04,37,6.60
2009,09,25,04,38,6.60
2009,09,25,04,39,6.60
2009,09,25,04,40,6.60
2009,09,25,04,41,6.60
2009,09,25,04,42,6.60
2009,09,25,04,43,6.60
2009,09,25,04,44,6.60
2009,09,25,04,45,6.60
2009,09,25,04,46,6.60
2009,09,25,04,47,6.60
2009,09,25,04,48,6.60
2009,09,25,04,49,6.70
2009,09,25,04,50,6.70
2009,09,25,04,51,6.70
2009,09,25,04,52,6.70
2009,09,25,04,53,6.70
2009,09,25,04,54,6.70
2009,09,25,04,55,6.70
2009,09,25,04,56,6.60
2009,09,25,04,57,6.60
2009,09,25,04,58,6.60
2009,09,25,04,59,6.60
2009,09,25,05,00,6.60
2009,09,25,05,01,6.60
2009,09,25,05,02,6.50
2009,09,25,05,03,6.40
2009,09,25,05,04,6.40
2009,09,25,05,05,6.40
2009,09,25,05,06,6.40
2009,09,25,05,07,6.40
2009,09,25,05,08,6.40
2009,09,25,05,09,6.40
2009,09,25,05,10,6.40
2009,09,25,05,11,6.40
2009,09,25,05,12,6.40
2009,09,25,05,13,6.40
2009,09,25,05,14,6.40
2009,09,25,05,15,6.40
2009,09,25,05,16,6.40
2009,09,25,05,17,6.40
2009,09,25,05,18,6.40
2009,09,25,05,19,6.40
2009,09,25,05,20,6.40
2009,09,25,05,21,6.40
2009,09,25,05,22,6.40
2009,09,25,05,23,6.30
2009,09,25,05,24,6.30
2009,09,25,05,25,6.30
2009,09,25,05,26,6.30
2009,09,25,05,27,6.30
2009,09,25,05,28,6.30
2009,09,25,05,29,6.20
2009,09,25,05,30,6.20
2009,09,25,05,31,6.20
2009,09,25,05,32,6.20
2009,09,25,05,33,6.20
2009,09,25,05,34,6.20
2009,09,25,05,35,6.20
2009,09,25,05,36,6.20
2009,09,25,05,37,6.20
2009,09,25,05,38,6.10
2009,09,25,05,39,6.10
2009,09,25,05,40,6.10
2009,09,25,05,41,6.10
2009,09,25,05,42,6.10
2009,09,25,05,43,6.10
2009,09,25,05,44,6.10
2009,09,25,05,45,6.10
2009,09,25,05,46,6.10
2009,09,25,05,47,6.10
2009,09,25,05,48,6.10
2009,09,25,05,49,6.10
2009,09,25,05,50,6.10
2009,09,25,05,51,6.10
2009,09,25,05,52,6.10
2009,09,25,05,53,6.10
2009,09,25,05,54,6.10
2009,09,25,05,55,6.00
2009,09,25,05,56,6.00
2009,09,25,05,57,6.00
2009,09,25,05,58,5.90
2009,09,25,05,59,5.90
2009,09,25,06,00,5.90
2009,09,25,06,01,5.90
2009,09,25,06,02,5.80
2009,09,25,06,03,5.80
2009,09,25,06,04,5.80
2009,09,25,06,05,5.80
2009,09,25,06,06,5.80
2009,09,25,06,07,5.80
2009,09,25,06,08,5.80
2009,09,25,06,09,5.70
2009,09,25,06,10,5.70
2009,09,25,06,11,5.70
2009,09,25,06,12,5.70
2009,09,25,06,13,5.70
2009,09,25,06,14,5.70
2009,09,25,06,15,5.70
2009,09,25,06,16,5.70
2009,09,25,06,17,5.70
2009,09,25,06,18,5.70
2009,09,25,06,19,5.70
2009,09,25,06,20,5.70
2009,09,25,06,21,5.70
2009,09,25,06,22,5.70
2009,09,25,06,23,5.70
2009,09,25,06,24,5.70
2009,09,25,06,25,5.70
2009,09,25,06,26,5.70
2009,09,25,06,27,5.70
2009,09,25,06,28,5.70
2009,09,25,06,29,5.70
2009,09,25,06,30,5.70
2009,09,25,06,31,5.70
2009,09,25,06,32,5.70
2009,09,25,06,33,5.70
2009,09,25,06,34,5.70
2009,09,25,06,35,5.70
2009,09,25,06,36,5.60
2009,09,25,06,37,5.60
2009,09,25,06,38,5.60
2009,09,25,06,39,5.60
2009,09,25,06,40,5.60
2009,09,25,06,41,5.50
2009,09,25,06,42,5.50
2009,09,25,06,43,5.50
2009,09,25,06,44,5.40
2009,09,25,06,45,5.40
2009,09,25,06,46,5.40
2009,09,25,06,47,5.40
2009,09,25,06,48,5.50
2009,09,25,06,49,5.50
2009,09,25,06,50,5.50
2009,09,25,06,51,5.60
2009,09,25,06,52,5.60
2009,09,25,06,53,5.70
2009,09,25,06,54,5.70
2009,09,25,06,55,5.70
2009,09,25,06,56,5.70
2009,09,25,06,57,5.70
2009,09,25,06,58,5.70
2009,09,25,06,59,5.70
2009,09,25,07,00,5.80
2009,09,25,07,01,5.80
2009,09,25,07,02,5.80
2009,09,25,07,03,5.70
2009,09,25,07,04,5.70
2009,09,25,07,05,5.70
2009,09,25,07,06,5.70
2009,09,25,07,07,5.70
2009,09,25,07,08,5.70
2009,09,25,07,09,5.70
2009,09,25,07,10,5.70
2009,09,25,07,11,5.60
2009,09,25,07,12,5.60
2009,09,25,07,13,5.60
2009,09,25,07,14,5.60
2009,09,25,07,15,5.60
2009,09,25,07,16,5.60
2009,09,25,07,17,5.60
2009,09,25,07,18,5.70
2009,09,25,07,19,5.70
2009,09,25,07,20,5.70
2009,09,25,07,21,5.70
2009,09,25,07,22,5.70
2009,09,25,07,23,5.70
2009,09,25,07,24,5.70
2009,09,25,07,25,5.70
2009,09,25,07,26,5.70
2009,09,25,07,27,5.70
2009,09,25,07,28,5.60
2009,09,25,07,29,5.60
2009,09,25,07,30,5.60
2009,09,25,07,31,5.50
2009,09,25,07,32,5.50
2009,09,25,07,33,5.50
2009,09,25,07,34,5.50
2009,09,25,07,35,5.50
2009,09,25,07,36,5.50
2009,09,25,07,37,5.50
2009,09,25,07,38,5.50
2009,09,25,07,39,5.50
2009,09,25,07,40,5.50
2009,09,25,07,41,5.50
2009,09,25,07,42,5.50
2009,09,25,07,43,5.50
2009,09,25,07,44,5.50
2009,09,25,07,45,5.50
2009,09,25,07,46,5.60
2009,09,25,07,47,5.60
2009,09,25,07,48,5.60
2009,09,25,07,49,5.60
2009,09,25,07,50,5.60
2009,09,25,07,51,5.60
2009,09,25,07,52,5.60
2009,09,25,07,53,5.60
2009,09,25,07,54,5.60
2009,09,25,07,55,5.60
2009,09,25,07,56,5.60
2009,09,25,07,57,5.60
2009,09,25,07,58,5.60
2009,09,25,07,59,5.70
2009,09,25,08,00,5.70
2009,09,25,08,01,5.70
2009,09,25,08,02,5.70
2009,09,25,08,03,5.70
2009,09,25,08,04,5.80
2009,09,25,08,05,5.80
2009,09,25,08,06,5.90
2009,09,25,08,07,5.90
2009,09,25,08,08,6.00
2009,09,25,08,09,6.00
2009,09,25,08,10,6.10
2009,09,25,08,11,6.20
2009,09,25,08,12,6.20
2009,09,25,08,13,6.20
2009,09,25,08,14,6.30
2009,09,25,08,15,6.40
2009,09,25,08,16,6.40
2009,09,25,08,17,6.50
2009,09,25,08,18,6.60
2009,09,25,08,19,6.70
2009,09,25,08,20,6.80
2009,09,25,08,21,7.00
2009,09,25,08,22,7.00
2009,09,25,08,23,7.10
2009,09,25,08,24,7.30
2009,09,25,08,25,7.40
2009,09,25,08,26,7.50
2009,09,25,08,27,7.60
2009,09,25,08,28,7.80
2009,09,25,08,29,7.90
2009,09,25,08,30,8.00
2009,09,25,08,31,8.20
2009,09,25,08,32,8.30
2009,09,25,08,33,8.40
2009,09,25,08,34,8.50
2009,09,25,08,35,8.60
2009,09,25,08,36,8.70
2009,09,25,08,37,8.70
2009,09,25,08,38,8.80
2009,09,25,08,39,8.90
2009,09,25,08,40,8.90
2009,09,25,08,41,9.00
2009,09,25,08,42,9.10
2009,09,25,08,43,9.20
2009,09,25,08,44,9.20
2009,09,25,08,45,9.30
2009,09,25,08,46,9.30
2009,09,25,08,47,9.40
2009,09,25,08,48,9.40
2009,09,25,08,49,9.50
2009,09,25,08,50,9.50
2009,09,25,08,51,9.60
2009,09,25,08,52,9.70
2009,09,25,08,53,9.70
2009,09,25,08,54,9.80
2009,09,25,08,55,9.90
2009,09,25,08,56,9.90
2009,09,25,08,57,10.10
2009,09,25,08,58,10.10
2009,09,25,08,59,10.10
2009,09,25,09,00,10.20
2009,09,25,09,01,10.30
2009,09,25,09,02,10.40
2009,09,25,09,03,10.50
2009,09,25,09,04,10.60
2009,09,25,09,05,10.70
2009,09,25,09,06,10.80
2009,09,25,09,07,10.90
2009,09,25,09,08,10.90
2009,09,25,09,09,11.00
2009,09,25,09,10,11.10
2009,09,25,09,11,11.20
2009,09,25,09,12,11.30
2009,09,25,09,13,11.40
2009,09,25,09,14,11.50
2009,09,25,09,15,11.60
2009,09,25,09,16,11.70
2009,09,25,09,17,11.80
2009,09,25,09,18,11.90
2009,09,25,09,19,12.00
2009,09,25,09,20,12.10
2009,09,25,09,21,12.30
2009,09,25,09,22,12.40
2009,09,25,09,23,12.60
2009,09,25,09,24,12.70
2009,09,25,09,25,12.80
2009,09,25,09,26,12.90
2009,09,25,09,27,13.00
2009,09,25,09,28,13.10
2009,09,25,09,29,13.30
2009,09,25,09,30,13.40
2009,09,25,09,31,13.50
2009,09,25,09,32,13.60
2009,09,25,09,33,13.70
2009,09,25,09,34,13.80
2009,09,25,09,35,13.90
2009,09,25,09,36,14.00
2009,09,25,09,37,14.00
2009,09,25,09,38,14.20
2009,09,25,09,39,14.20
2009,09,25,09,40,14.30
2009,09,25,09,41,14.50
2009,09,25,09,42,14.60
2009,09,25,09,43,14.70
2009,09,25,09,44,14.80
2009,09,25,09,45,14.80
2009,09,25,09,46,14.90
2009,09,25,09,47,14.90
2009,09,25,09,48,14.90
2009,09,25,09,49,15.00
2009,09,25,09,50,15.00
2009,09,25,09,51,15.10
2009,09,25,09,52,15.10
2009,09,25,09,53,15.20
2009,09,25,09,54,15.30
2009,09,25,09,55,15.30
2009,09,25,09,56,15.30
2009,09,25,09,57,15.40
2009,09,25,09,58,15.40
2009,09,25,09,59,15.50
2009,09,25,10,00,15.60
2009,09,25,10,01,15.60
2009,09,25,10,02,15.70
2009,09,25,10,03,15.80
2009,09,25,10,04,15.80
2009,09,25,10,05,15.80
2009,09,25,10,06,15.90
2009,09,25,10,07,15.90
2009,09,25,10,08,16.10
2009,09,25,10,09,16.10
2009,09,25,10,10,16.10
2009,09,25,10,11,16.20
2009,09,25,10,12,16.30
2009,09,25,10,13,16.30
2009,09,25,10,14,16.40
2009,09,25,10,15,16.50
2009,09,25,10,16,16.60
2009,09,25,10,17,16.70
2009,09,25,10,18,16.70
2009,09,25,10,19,16.80
2009,09,25,10,20,16.90
2009,09,25,10,21,17.00
2009,09,25,10,22,17.10
2009,09,25,10,23,17.20
2009,09,25,10,24,17.20
2009,09,25,10,25,17.30
2009,09,25,10,26,17.40
2009,09,25,10,27,17.40
2009,09,25,10,28,17.50
2009,09,25,10,29,17.50
2009,09,25,10,30,17.50
2009,09,25,10,31,17.50
2009,09,25,10,32,17.50
2009,09,25,10,33,17.60
2009,09,25,10,34,17.60
2009,09,25,10,35,17.70
2009,09,25,10,36,17.70
2009,09,25,10,37,17.90
2009,09,25,10,38,17.90
2009,09,25,10,39,18.10
2009,09,25,10,40,18.20
2009,09,25,10,41,18.40
2009,09,25,10,42,18.50
2009,09,25,10,43,18.60
2009,09,25,10,44,18.60
2009,09,25,10,45,18.70
2009,09,25,10,46,18.80
2009,09,25,10,47,18.90
2009,09,25,10,48,18.80
2009,09,25,10,49,18.70
2009,09,25,10,50,18.60
2009,09,25,10,51,18.60
2009,09,25,10,52,18.50
2009,09,25,10,53,18.40
2009,09,25,10,54,18.30
2009,09,25,10,55,18.20
2009,09,25,10,56,18.20
2009,09,25,10,57,18.20
2009,09,25,10,58,18.20
2009,09,25,10,59,18.20
2009,09,25,11,00,18.20
2009,09,25,11,01,18.20
2009,09,25,11,02,18.20
2009,09,25,11,03,18.30
2009,09,25,11,04,18.40
2009,09,25,11,05,18.50
2009,09,25,11,06,18.60
2009,09,25,11,07,18.80
2009,09,25,11,08,18.90
2009,09,25,11,09,19.00
2009,09,25,11,10,19.10
2009,09,25,11,11,19.10
2009,09,25,11,12,19.20
2009,09,25,11,13,19.20
2009,09,25,11,14,19.30
2009,09,25,11,15,19.40
2009,09,25,11,16,19.40
2009,09,25,11,17,19.40
2009,09,25,11,18,19.50
2009,09,25,11,19,19.60
2009,09,25,11,20,19.70
2009,09,25,11,21,19.80
2009,09,25,11,22,19.90
2009,09,25,11,23,19.90
2009,09,25,11,24,20.00
2009,09,25,11,25,20.20
2009,09,25,11,26,20.20
2009,09,25,11,27,20.30
2009,09,25,11,28,20.40
2009,09,25,11,29,20.50
2009,09,25,11,30,20.60
2009,09,25,11,31,20.70
2009,09,25,11,32,20.80
2009,09,25,11,33,20.80
2009,09,25,11,34,20.80
2009,09,25,11,35,20.80
2009,09,25,11,36,20.80
2009,09,25,11,37,20.70
2009,09,25,11,38,20.70
2009,09,25,11,39,20.60
2009,09,25,11,40,20.60
2009,09,25,11,41,20.60
2009,09,25,11,42,20.60
2009,09,25,11,43,20.50
2009,09,25,11,44,20.40
2009,09,25,11,45,20.40
2009,09,25,11,46,20.40
2009,09,25,11,47,20.40
2009,09,25,11,48,20.50
2009,09,25,11,49,20.50
2009,09,25,11,50,20.60
2009,09,25,11,51,20.60
2009,09,25,11,52,20.60
2009,09,25,11,53,20.60
2009,09,25,11,54,20.50
2009,09,25,11,55,20.40
2009,09,25,11,56,20.30
2009,09,25,11,57,20.20
2009,09,25,11,58,20.20
2009,09,25,11,59,20.10
2009,09,25,12,00,20.10
2009,09,25,12,01,20.10
2009,09,25,12,02,20.10
2009,09,25,12,03,20.10
2009,09,25,12,04,20.10
2009,09,25,12,05,20.10
2009,09,25,12,06,20.20
2009,09,25,12,07,20.20
2009,09,25,12,08,20.30
2009,09,25,12,09,20.40
2009,09,25,12,10,20.50
2009,09,25,12,11,20.70
2009,09,25,12,12,20.80
2009,09,25,12,13,21.00
2009,09,25,12,14,21.00
2009,09,25,12,15,21.00
2009,09,25,12,16,21.10
2009,09,25,12,17,21.10
2009,09,25,12,18,21.10
2009,09,25,12,19,21.10
2009,09,25,12,20,21.20
2009,09,25,12,21,21.20
2009,09,25,12,22,21.30
2009,09,25,12,23,21.30
2009,09,25,12,24,21.30
2009,09,25,12,25,21.30
2009,09,25,12,26,21.30
2009,09,25,12,27,21.10
2009,09,25,12,28,20.90
2009,09,25,12,29,20.70
2009,09,25,12,30,20.40
2009,09,25,12,31,20.10
2009,09,25,12,32,19.90
2009,09,25,12,33,19.70
2009,09,25,12,34,19.60
2009,09,25,12,35,19.50
2009,09,25,12,36,19.40
2009,09,25,12,37,19.30
2009,09,25,12,38,19.30
2009,09,25,12,39,19.30
2009,09,25,12,40,19.30
2009,09,25,12,41,19.30
2009,09,25,12,42,19.40
2009,09,25,12,43,19.40
2009,09,25,12,44,19.50
2009,09,25,12,45,19.60
2009,09,25,12,46,19.70
2009,09,25,12,47,19.70
2009,09,25,12,48,19.70
2009,09,25,12,49,19.80
2009,09,25,12,50,19.90
2009,09,25,12,51,20.00
2009,09,25,12,52,20.10
2009,09,25,12,53,20.20
2009,09,25,12,54,20.20
2009,09,25,12,55,20.30
2009,09,25,12,56,20.40
2009,09,25,12,57,20.50
2009,09,25,12,58,20.50
2009,09,25,12,59,20.40
2009,09,25,13,00,20.30
2009,09,25,13,01,20.40
2009,09,25,13,02,20.20
2009,09,25,13,03,20.10
2009,09,25,13,04,20.10
2009,09,25,13,05,20.10
2009,09,25,13,06,20.00
2009,09,25,13,07,19.90
2009,09,25,13,08,19.90
2009,09,25,13,09,19.90
2009,09,25,13,10,19.90
2009,09,25,13,11,19.90
2009,09,25,13,12,19.90
2009,09,25,13,13,19.70
2009,09,25,13,14,19.60
2009,09,25,13,15,19.60
2009,09,25,13,16,19.50
2009,09,25,13,17,19.50
2009,09,25,13,18,19.40
2009,09,25,13,19,19.40
2009,09,25,13,20,19.40
2009,09,25,13,21,19.50
2009,09,25,13,22,19.60
2009,09,25,13,23,19.60
2009,09,25,13,24,19.50
2009,09,25,13,25,19.50
2009,09,25,13,26,19.60
2009,09,25,13,27,19.70
2009,09,25,13,28,19.80
2009,09,25,13,29,19.80
2009,09,25,13,30,19.80
2009,09,25,13,31,19.80
2009,09,25,13,32,19.90
2009,09,25,13,33,20.00
2009,09,25,13,34,20.10
2009,09,25,13,35,20.10
2009,09,25,13,36,20.10
2009,09,25,13,37,20.10
2009,09,25,13,38,20.20
2009,09,25,13,39,20.10
2009,09,25,13,40,20.00
2009,09,25,13,41,19.90
2009,09,25,13,42,19.90
2009,09,25,13,43,19.80
2009,09,25,13,44,19.80
2009,09,25,13,45,19.70
2009,09,25,13,46,19.60
2009,09,25,13,47,19.60
2009,09,25,13,48,19.60
2009,09,25,13,49,19.60
2009,09,25,13,50,19.60
2009,09,25,13,51,19.60
2009,09,25,13,52,19.60
2009,09,25,13,53,19.60
2009,09,25,13,54,19.60
2009,09,25,13,55,19.70
2009,09,25,13,56,19.80
2009,09,25,13,57,19.80
2009,09,25,13,58,19.80
2009,09,25,13,59,19.80
2009,09,25,14,00,19.90
2009,09,25,14,01,20.00
2009,09,25,14,02,20.10
2009,09,25,14,03,20.10
2009,09,25,14,04,20.10
2009,09,25,14,05,20.00
2009,09,25,14,06,19.90
2009,09,25,14,07,19.90
2009,09,25,14,08,19.90
2009,09,25,14,09,19.90
2009,09,25,14,10,19.90
2009,09,25,14,11,19.90
2009,09,25,14,12,19.90
2009,09,25,14,13,19.90
2009,09,25,14,14,20.00
2009,09,25,14,15,20.00
2009,09,25,14,16,19.90
2009,09,25,14,17,19.80
2009,09,25,14,18,19.70
2009,09,25,14,19,19.60
2009,09,25,14,20,19.50
2009,09,25,14,21,19.40
2009,09,25,14,22,19.50
2009,09,25,14,23,19.60
2009,09,25,14,24,19.70
2009,09,25,14,25,19.80
2009,09,25,14,26,19.90
2009,09,25,14,27,19.90
2009,09,25,14,28,19.90
2009,09,25,14,29,19.90
2009,09,25,14,30,19.90
2009,09,25,14,31,19.90
2009,09,25,14,32,19.90
2009,09,25,14,33,19.90
2009,09,25,14,34,19.70
2009,09,25,14,35,19.60
2009,09,25,14,36,19.50
2009,09,25,14,37,19.40
2009,09,25,14,38,19.30
2009,09,25,14,39,19.20
2009,09,25,14,40,19.20
2009,09,25,14,41,19.30
2009,09,25,14,42,19.40
2009,09,25,14,43,19.40
2009,09,25,14,44,19.50
2009,09,25,14,45,19.50
2009,09,25,14,46,19.60
2009,09,25,14,47,19.50
2009,09,25,14,48,19.60
2009,09,25,14,49,19.50
2009,09,25,14,50,19.60
2009,09,25,14,51,19.60
2009,09,25,14,52,19.60
2009,09,25,14,53,19.70
2009,09,25,14,54,19.70
2009,09,25,14,55,19.70
2009,09,25,14,56,19.70
2009,09,25,14,57,19.70
2009,09,25,14,58,19.80
2009,09,25,14,59,19.90
2009,09,25,15,00,19.90
2009,09,25,15,01,19.90
2009,09,25,15,02,19.90
2009,09,25,15,03,19.90
2009,09,25,15,04,19.90
2009,09,25,15,05,20.00
2009,09,25,15,06,20.10
2009,09,25,15,07,20.20
2009,09,25,15,08,20.20
2009,09,25,15,09,20.20
2009,09,25,15,10,20.20
2009,09,25,15,11,20.20
2009,09,25,15,12,20.20
2009,09,25,15,13,20.20
2009,09,25,15,14,20.10
2009,09,25,15,15,20.10
2009,09,25,15,16,20.10
2009,09,25,15,17,20.10
2009,09,25,15,18,20.10
2009,09,25,15,19,20.00
2009,09,25,15,20,19.90
2009,09,25,15,21,19.90
2009,09,25,15,22,19.90
2009,09,25,15,23,19.90
2009,09,25,15,24,19.80
2009,09,25,15,25,19.80
2009,09,25,15,26,19.80
2009,09,25,15,27,19.70
2009,09,25,15,28,19.50
2009,09,25,15,29,19.50
2009,09,25,15,30,19.50
2009,09,25,15,31,19.50
2009,09,25,15,32,19.50
2009,09,25,15,33,19.50
2009,09,25,15,34,19.50
2009,09,25,15,35,19.40
2009,09,25,15,36,19.40
2009,09,25,15,37,19.30
2009,09,25,15,38,19.20
2009,09,25,15,39,19.20
2009,09,25,15,40,19.20
2009,09,25,15,41,19.10
2009,09,25,15,42,19.10
2009,09,25,15,43,19.10
2009,09,25,15,44,19.10
2009,09,25,15,45,19.10
2009,09,25,15,46,19.10
2009,09,25,15,47,19.20
2009,09,25,15,48,19.20
2009,09,25,15,49,19.10
2009,09,25,15,50,19.10
2009,09,25,15,51,19.10
2009,09,25,15,52,19.10
2009,09,25,15,53,19.10
2009,09,25,15,54,19.10
2009,09,25,15,55,19.10
2009,09,25,15,56,19.10
2009,09,25,15,57,19.10
2009,09,25,15,58,19.10
2009,09,25,15,59,19.10
2009,09,25,16,00,19.10
2009,09,25,16,01,19.10
2009,09,25,16,02,19.00
2009,09,25,16,03,18.90
2009,09,25,16,04,18.90
2009,09,25,16,05,18.90
2009,09,25,16,06,18.90
2009,09,25,16,07,18.90
2009,09,25,16,08,18.90
2009,09,25,16,09,18.90
2009,09,25,16,10,18.90
2009,09,25,16,11,18.90
2009,09,25,16,12,18.90
2009,09,25,16,13,18.90
2009,09,25,16,14,18.90
2009,09,25,16,15,18.90
2009,09,25,16,16,18.90
2009,09,25,16,17,19.10
2009,09,25,16,18,19.10
2009,09,25,16,19,19.10
2009,09,25,16,20,19.10
2009,09,25,16,21,19.10
2009,09,25,16,22,19.10
2009,09,25,16,23,19.10
2009,09,25,16,24,19.10
2009,09,25,16,25,19.00
2009,09,25,16,26,18.90
2009,09,25,16,27,19.00
2009,09,25,16,28,19.10
2009,09,25,16,29,19.10
2009,09,25,16,30,19.10
2009,09,25,16,31,19.10
2009,09,25,16,32,19.00
2009,09,25,16,33,18.80
2009,09,25,16,34,18.70
2009,09,25,16,35,18.70
2009,09,25,16,36,18.60
2009,09,25,16,37,18.50
2009,09,25,16,38,18.50
2009,09,25,16,39,18.50
2009,09,25,16,40,18.50
2009,09,25,16,41,18.40
2009,09,25,16,42,18.40
2009,09,25,16,43,18.30
2009,09,25,16,44,18.30
2009,09,25,16,45,18.20
2009,09,25,16,46,18.20
2009,09,25,16,47,18.20
2009,09,25,16,48,18.10
2009,09,25,16,49,18.10
2009,09,25,16,50,18.20
2009,09,25,16,51,18.10
2009,09,25,16,52,18.10
2009,09,25,16,53,18.10
2009,09,25,16,54,18.10
2009,09,25,16,55,18.10
2009,09,25,16,56,18.10
2009,09,25,16,57,18.10
2009,09,25,16,58,18.10
2009,09,25,16,59,18.10
2009,09,25,17,00,18.20
2009,09,25,17,01,18.20
2009,09,25,17,02,18.30
2009,09,25,17,03,18.40
2009,09,25,17,04,18.50
2009,09,25,17,05,18.60
2009,09,25,17,06,18.70
2009,09,25,17,07,18.90
2009,09,25,17,08,19.00
2009,09,25,17,09,19.10
2009,09,25,17,10,19.10
2009,09,25,17,11,19.20
2009,09,25,17,12,19.30
2009,09,25,17,13,19.20
2009,09,25,17,14,19.10
2009,09,25,17,15,19.20
2009,09,25,17,16,19.10
2009,09,25,17,17,19.10
2009,09,25,17,18,19.00
2009,09,25,17,19,18.90
2009,09,25,17,20,18.90
2009,09,25,17,21,18.90
2009,09,25,17,22,18.90
2009,09,25,17,23,18.90
2009,09,25,17,24,18.90
2009,09,25,17,25,18.90
2009,09,25,17,26,18.90
2009,09,25,17,27,18.90
2009,09,25,17,28,18.90
2009,09,25,17,29,18.90
2009,09,25,17,30,18.90
2009,09,25,17,31,19.00
2009,09,25,17,32,19.10
2009,09,25,17,33,19.10
2009,09,25,17,34,19.10
2009,09,25,17,35,19.10
2009,09,25,17,36,19.10
2009,09,25,17,37,19.10
2009,09,25,17,38,19.10
2009,09,25,17,39,19.10
2009,09,25,17,40,19.10
2009,09,25,17,41,19.20
2009,09,25,17,42,19.30